| time (UTC) | temp F | wind direction | speed MPH | gust MPH | rain 1hr in | rain 24hr in | rain mn in | humidity % | barometer mb |
| 20260906025034 | 74 | 360 | 0.0 | 0.0 | 0.00 | 0.00 | 0.00 | 28 | 1015.2 |
| 20260906024035 | 75 | 360 | 0.0 | 0.0 | 0.00 | 0.00 | 0.00 | 28 | 1014.9 |
| 20260906023556 | 77 | 360 | 0.0 | 0.0 | 0.00 | 0.00 | 0.00 | 27 | 1014.8 |
| 20260906023118 | 77 | 360 | 0.0 | 0.0 | 0.00 | 0.00 | 0.00 | 27 | 1014.7 |
| 20260906022618 | 77 | 360 | 0.0 | 0.0 | 0.00 | 0.00 | 0.00 | 26 | 1014.6 |
| 20260906022057 | 77 | 360 | 0.0 | 0.0 | 0.00 | 0.00 | 0.00 | 26 | 1014.5 |
| 20260906021538 | 78 | 360 | 0.0 | 0.0 | 0.00 | 0.00 | 0.00 | 26 | 1014.5 |
| 20260906021040 | 78 | 360 | 0.0 | 3.0 | 0.00 | 0.00 | 0.00 | 25 | 1014.5 |
| 20260906020541 | 78 | 360 | 0.0 | 4.0 | 0.00 | 0.00 | 0.00 | 25 | 1014.4 |
| 20260906020103 | 79 | 360 | 3.0 | 4.0 | 0.00 | 0.00 | 0.00 | 25 | 1014.3 |
| 20260906015526 | 81 | 360 | 3.0 | 5.0 | 0.00 | 0.00 | 0.00 | 24 | 1014.2 |
| 20260906015028 | 83 | 360 | 3.0 | 7.0 | 0.00 | 0.00 | 0.00 | 22 | 1014.3 |
| 20260906014531 | 85 | 360 | 3.0 | 10.0 | 0.00 | 0.00 | 0.00 | 21 | 1014.2 |
| 20260906014113 | 86 | 360 | 5.0 | 10.0 | 0.00 | 0.00 | 0.00 | 21 | 1014.1 |
| 20260906013552 | 87 | 360 | 6.0 | 9.0 | 0.00 | 0.00 | 0.00 | 21 | 1014.1 |
| 20260906013032 | 87 | 360 | 4.0 | 12.0 | 0.00 | 0.00 | 0.00 | 21 | 1014.1 |
| 20260906012532 | 88 | 360 | 1.0 | 12.0 | 0.00 | 0.00 | 0.00 | 21 | 1014.1 |
| 20260906012034 | 88 | 360 | 1.0 | 10.0 | 0.00 | 0.00 | 0.00 | 20 | 1014.1 |
| 20260906011617 | 88 | 360 | 2.0 | 10.0 | 0.00 | 0.00 | 0.00 | 21 | 1014.1 |
| 20260906011036 | 88 | 360 | 1.0 | 10.0 | 0.00 | 0.00 | 0.00 | 21 | 1014.1 |
| 20260906010557 | 88 | 360 | 2.0 | 9.0 | 0.00 | 0.00 | 0.00 | 21 | 1014.1 |
| 20260906010037 | 89 | 360 | 1.0 | 9.0 | 0.00 | 0.00 | 0.00 | 21 | 1014.1 |
| 20260906005619 | 89 | 360 | 0.0 | 4.0 | 0.00 | 0.00 | 0.00 | 21 | 1014.1 |
| 20260906005038 | 89 | 360 | 0.0 | 10.0 | 0.00 | 0.00 | 0.00 | 21 | 1014.1 |
| 20260906004540 | 89 | 360 | 0.0 | 10.0 | 0.00 | 0.00 | 0.00 | 21 | 1013.9 |
| 20260906004042 | 90 | 360 | 0.0 | 0.0 | 0.00 | 0.00 | 0.00 | 23 | 1013.9 |
| 20260906003541 | 90 | 360 | 0.0 | 0.0 | 0.00 | 0.00 | 0.00 | 23 | 1014.0 |
| 20260906003044 | 90 | 360 | 0.0 | 7.0 | 0.00 | 0.00 | 0.00 | 23 | 1014.0 |
| 20260906002526 | 90 | 360 | 4.0 | 7.0 | 0.00 | 0.00 | 0.00 | 23 | 1014.0 |
| 20260906002027 | 90 | 360 | 0.0 | 6.0 | 0.00 | 0.00 | 0.00 | 23 | 1014.0 |
| 20260906001533 | 89 | 360 | 1.0 | 9.0 | 0.00 | 0.00 | 0.00 | 22 | 1014.0 |
| 20260906001034 | 89 | 360 | 5.0 | 12.0 | 0.00 | 0.00 | 0.00 | 23 | 1014.0 |
| 20260905235548 | 90 | 360 | 2.0 | 13.0 | 0.00 | 0.00 | 0.00 | 23 | 1014.0 |
| 20260905235049 | 90 | 360 | 0.0 | 10.0 | 0.00 | 0.00 | 0.00 | 22 | 1013.9 |
| 20260905234550 | 90 | 360 | 4.0 | 13.0 | 0.00 | 0.00 | 0.00 | 22 | 1014.1 |
| 20260905234051 | 90 | 360 | 2.0 | 13.0 | 0.00 | 0.00 | 0.00 | 23 | 1014.1 |
| 20260905233530 | 90 | 360 | 0.0 | 13.0 | 0.00 | 0.00 | 0.00 | 23 | 1014.1 |
| 20260905233032 | 90 | 360 | 3.0 | 13.0 | 0.00 | 0.00 | 0.00 | 23 | 1014.0 |
| 20260905232615 | 91 | 360 | 1.0 | 15.0 | 0.00 | 0.00 | 0.00 | 22 | 1014.0 |
| 20260905232034 | 91 | 360 | 5.0 | 15.0 | 0.00 | 0.00 | 0.00 | 23 | 1014.1 |
| 20260905231556 | 91 | 360 | 3.0 | 14.0 | 0.00 | 0.00 | 0.00 | 22 | 1014.1 |
| 20260905231057 | 91 | 360 | 4.0 | 14.0 | 0.00 | 0.00 | 0.00 | 22 | 1014.1 |
| 20260905230540 | 91 | 360 | 0.0 | 27.0 | 0.00 | 0.00 | 0.00 | 22 | 1014.1 |
| 20260905230041 | 91 | 360 | 10.0 | 27.0 | 0.00 | 0.00 | 0.00 | 23 | 1014.1 |
| 20260905225542 | 91 | 360 | 0.0 | 11.0 | 0.00 | 0.00 | 0.00 | 22 | 1014.1 |
| 20260905225103 | 91 | 360 | 1.0 | 11.0 | 0.00 | 0.00 | 0.00 | 22 | 1014.2 |
| 20260905224605 | 91 | 360 | 0.0 | 10.0 | 0.00 | 0.00 | 0.00 | 23 | 1014.2 |
| 20260905224104 | 91 | 360 | 3.0 | 10.0 | 0.00 | 0.00 | 0.00 | 23 | 1014.2 |
| 20260905223624 | 91 | 360 | 2.0 | 9.0 | 0.00 | 0.00 | 0.00 | 22 | 1014.3 |
| 20260905223043 | 91 | 360 | 0.0 | 9.0 | 0.00 | 0.00 | 0.00 | 23 | 1014.3 |
| 20260905222545 | 91 | 360 | 0.0 | 7.0 | 0.00 | 0.00 | 0.00 | 22 | 1014.3 |
| 20260905222025 | 90 | 360 | 0.0 | 13.0 | 0.00 | 0.00 | 0.00 | 22 | 1014.4 |
| 20260905221546 | 91 | 360 | 0.0 | 13.0 | 0.00 | 0.00 | 0.00 | 22 | 1014.4 |
| 20260905221048 | 90 | 360 | 0.0 | 7.0 | 0.00 | 0.00 | 0.00 | 23 | 1014.5 |
| 20260905220527 | 90 | 360 | 3.0 | 16.0 | 0.00 | 0.00 | 0.00 | 23 | 1014.7 |
| 20260905215548 | 90 | 360 | 4.0 | 14.0 | 0.00 | 0.00 | 0.00 | 23 | 1014.7 |
| 20260905215049 | 90 | 360 | 0.0 | 17.0 | 0.00 | 0.00 | 0.00 | 23 | 1014.7 |
| 20260905214551 | 90 | 360 | 11.0 | 17.0 | 0.00 | 0.00 | 0.00 | 23 | 1014.8 |
| 20260905214112 | 90 | 360 | 0.0 | 13.0 | 0.00 | 0.00 | 0.00 | 24 | 1014.9 |
| 20260905213546 | 90 | 360 | 4.0 | 14.0 | 0.00 | 0.00 | 0.00 | 23 | 1014.9 |
| 20260905213108 | 90 | 360 | 1.0 | 19.0 | 0.00 | 0.00 | 0.00 | 23 | 1014.8 |
| 20260905212528 | 90 | 360 | 7.0 | 11.0 | 0.00 | 0.00 | 0.00 | 23 | 1014.9 |
| 20260905212028 | 90 | 360 | 0.0 | 16.0 | 0.00 | 0.00 | 0.00 | 22 | 1015.0 |
| 20260905211550 | 90 | 360 | 2.0 | 16.0 | 0.00 | 0.00 | 0.00 | 23 | 1015.0 |
| 20260905211033 | 90 | 360 | 0.0 | 13.0 | 0.00 | 0.00 | 0.00 | 23 | 1015.1 |
| 20260905210553 | 89 | 360 | 2.0 | 15.0 | 0.00 | 0.00 | 0.00 | 23 | 1015.1 |
| 20260905210033 | 89 | 360 | 3.0 | 24.0 | 0.00 | 0.00 | 0.00 | 23 | 1015.1 |
| 20260905205034 | 90 | 360 | 3.0 | 15.0 | 0.00 | 0.00 | 0.00 | 25 | 1015.2 |
| 20260905204556 | 89 | 360 | 4.0 | 15.0 | 0.00 | 0.00 | 0.00 | 24 | 1015.3 |
| 20260905203556 | 88 | 360 | 5.0 | 7.0 | 0.00 | 0.00 | 0.00 | 24 | 1015.5 |
| 20260905203035 | 88 | 360 | 0.0 | 9.0 | 0.00 | 0.00 | 0.00 | 25 | 1015.4 |
| 20260905202056 | 88 | 360 | 0.0 | 6.0 | 0.00 | 0.00 | 0.00 | 25 | 1015.7 |
| 20260905201536 | 87 | 360 | 0.0 | 7.0 | 0.00 | 0.00 | 0.00 | 25 | 1015.7 |
| 20260905201059 | 87 | 360 | 3.0 | 8.0 | 0.00 | 0.00 | 0.00 | 26 | 1015.7 |
| 20260905200058 | 87 | 360 | 2.0 | 7.0 | 0.00 | 0.00 | 0.00 | 26 | 1015.8 |
| 20260905195559 | 86 | 360 | 3.0 | 6.0 | 0.00 | 0.00 | 0.00 | 26 | 1015.9 |
| 20260905195100 | 86 | 360 | 2.0 | 11.0 | 0.00 | 0.00 | 0.00 | 26 | 1016.0 |
| 20260905194540 | 87 | 360 | 7.0 | 11.0 | 0.00 | 0.00 | 0.00 | 26 | 1015.9 |
| 20260905194042 | 87 | 360 | 1.0 | 11.0 | 0.00 | 0.00 | 0.00 | 26 | 1016.1 |
| 20260905193603 | 86 | 360 | 6.0 | 10.0 | 0.00 | 0.00 | 0.00 | 27 | 1016.0 |
| 20260905193123 | 86 | 360 | 3.0 | 10.0 | 0.00 | 0.00 | 0.00 | 27 | 1016.1 |
| 20260905192604 | 86 | 360 | 5.0 | 10.0 | 0.00 | 0.00 | 0.00 | 27 | 1016.2 |
| 20260905192105 | 86 | 360 | 5.0 | 8.0 | 0.00 | 0.00 | 0.00 | 26 | 1016.3 |
| 20260905191606 | 85 | 360 | 1.0 | 6.0 | 0.00 | 0.00 | 0.00 | 27 | 1016.3 |
| 20260905191046 | 85 | 360 | 1.0 | 6.0 | 0.00 | 0.00 | 0.00 | 27 | 1016.4 |
| 20260905190525 | 84 | 360 | 0.0 | 5.0 | 0.00 | 0.00 | 0.00 | 27 | 1016.5 |
| 20260905190107 | 84 | 360 | 0.0 | 4.0 | 0.00 | 0.00 | 0.00 | 27 | 1016.5 |
| 20260905185547 | 84 | 360 | 1.0 | 5.0 | 0.00 | 0.00 | 0.00 | 27 | 1016.6 |
| 20260905185028 | 83 | 360 | 1.0 | 7.0 | 0.00 | 0.00 | 0.00 | 27 | 1016.8 |
| 20260905184549 | 83 | 360 | 3.0 | 7.0 | 0.00 | 0.00 | 0.00 | 28 | 1016.9 |
| 20260905184050 | 82 | 360 | 0.0 | 4.0 | 0.00 | 0.00 | 0.00 | 28 | 1016.9 |
| 20260905183611 | 82 | 360 | 0.0 | 4.0 | 0.00 | 0.00 | 0.00 | 28 | 1017.0 |
| 20260905183111 | 82 | 360 | 0.0 | 3.0 | 0.00 | 0.00 | 0.00 | 27 | 1017.1 |
| 20260905182551 | 82 | 360 | 0.0 | 6.0 | 0.00 | 0.00 | 0.00 | 27 | 1017.2 |
| 20260905182051 | 82 | 360 | 3.0 | 6.0 | 0.00 | 0.00 | 0.00 | 27 | 1017.2 |
| 20260905181530 | 82 | 360 | 0.0 | 5.0 | 0.00 | 0.00 | 0.00 | 27 | 1017.4 |
| 20260905181053 | 83 | 360 | 2.0 | 5.0 | 0.00 | 0.00 | 0.00 | 28 | 1017.5 |
| 20260905180553 | 82 | 360 | 0.0 | 0.0 | 0.00 | 0.00 | 0.00 | 27 | 1017.5 |
| 20260905180033 | 81 | 360 | 0.0 | 0.0 | 0.00 | 0.00 | 0.00 | 27 | 1017.5 |
| 20260905175615 | 81 | 360 | 0.0 | 0.0 | 0.00 | 0.00 | 0.00 | 28 | 1017.6 |
| 20260905175034 | 79 | 360 | 0.0 | 0.0 | 0.00 | 0.00 | 0.00 | 28 | 1017.7 |
| 20260905174555 | 79 | 360 | 0.0 | 1.0 | 0.00 | 0.00 | 0.00 | 29 | 1017.8 |
| 20260905174117 | 78 | 360 | 0.0 | 1.0 | 0.00 | 0.00 | 0.00 | 29 | 1017.8 |
| 20260905173555 | 79 | 360 | 0.0 | 1.0 | 0.00 | 0.00 | 0.00 | 28 | 1017.8 |
| 20260905173036 | 79 | 360 | 0.0 | 0.0 | 0.00 | 0.00 | 0.00 | 29 | 1017.9 |
| 20260905172539 | 78 | 360 | 0.0 | 0.0 | 0.00 | 0.00 | 0.00 | 28 | 1018.0 |
| 20260905172121 | 78 | 360 | 0.0 | 0.0 | 0.00 | 0.00 | 0.00 | 29 | 1018.0 |
| 20260905171600 | 78 | 360 | 0.0 | 0.0 | 0.00 | 0.00 | 0.00 | 29 | 1018.0 |
| 20260905171122 | 77 | 360 | 0.0 | 2.0 | 0.00 | 0.00 | 0.00 | 29 | 1018.2 |
| 20260905170621 | 77 | 360 | 0.0 | 2.0 | 0.00 | 0.00 | 0.00 | 29 | 1018.2 |
| 20260905170122 | 77 | 360 | 0.0 | 1.0 | 0.00 | 0.00 | 0.00 | 29 | 1018.2 |
| 20260905165541 | 76 | 360 | 0.0 | 3.0 | 0.00 | 0.00 | 0.00 | 31 | 1018.2 |
| 20260905165043 | 76 | 360 | 0.0 | 2.0 | 0.00 | 0.00 | 0.00 | 30 | 1018.2 |
| 20260905164605 | 76 | 360 | 0.0 | 0.0 | 0.00 | 0.00 | 0.00 | 30 | 1018.3 |
| 20260905164046 | 77 | 360 | 0.0 | 0.0 | 0.00 | 0.00 | 0.00 | 29 | 1018.2 |
| 20260905163526 | 76 | 360 | 0.0 | 5.0 | 0.00 | 0.00 | 0.00 | 30 | 1018.2 |
| 20260905163048 | 76 | 360 | 2.0 | 5.0 | 0.00 | 0.00 | 0.00 | 30 | 1018.3 |
| 20260905162609 | 76 | 360 | 0.0 | 5.0 | 0.00 | 0.00 | 0.00 | 30 | 1018.3 |
| 20260905162050 | 75 | 360 | 1.0 | 5.0 | 0.00 | 0.00 | 0.00 | 31 | 1018.3 |
| 20260905161551 | 74 | 360 | 0.0 | 3.0 | 0.00 | 0.00 | 0.00 | 31 | 1018.3 |
| 20260905161113 | 74 | 360 | 1.0 | 5.0 | 0.00 | 0.00 | 0.00 | 32 | 1018.3 |
| 20260905160530 | 73 | 360 | 3.0 | 6.0 | 0.00 | 0.00 | 0.00 | 32 | 1018.3 |
| 20260905160031 | 73 | 360 | 0.0 | 6.0 | 0.00 | 0.00 | 0.00 | 32 | 1018.3 |
| 20260905155532 | 73 | 360 | 2.0 | 5.0 | 0.00 | 0.00 | 0.00 | 32 | 1018.3 |
| 20260905155034 | 73 | 360 | 1.0 | 4.0 | 0.00 | 0.00 | 0.00 | 32 | 1018.3 |
| 20260905154557 | 73 | 360 | 0.0 | 0.0 | 0.00 | 0.00 | 0.00 | 32 | 1018.4 |
| 20260905154038 | 72 | 360 | 0.0 | 0.0 | 0.00 | 0.00 | 0.00 | 32 | 1018.5 |
| 20260905153559 | 72 | 360 | 0.0 | 0.0 | 0.00 | 0.00 | 0.00 | 32 | 1018.4 |
| 20260905153038 | 71 | 360 | 0.0 | 0.0 | 0.00 | 0.00 | 0.00 | 32 | 1018.4 |
| 20260905152600 | 71 | 360 | 0.0 | 0.0 | 0.00 | 0.00 | 0.00 | 32 | 1018.4 |
| 20260905152040 | 71 | 360 | 0.0 | 0.0 | 0.00 | 0.00 | 0.00 | 32 | 1018.4 |
| 20260905151546 | 70 | 360 | 0.0 | 0.0 | 0.00 | 0.00 | 0.00 | 33 | 1018.5 |
| 20260905151124 | 69 | 360 | 0.0 | 0.0 | 0.00 | 0.00 | 0.00 | 34 | 1018.5 |
| 20260905145602 | 67 | 360 | 0.0 | 0.0 | 0.00 | 0.00 | 0.00 | 36 | 1018.7 |
| 20260905145103 | 66 | 360 | 0.0 | 0.0 | 0.00 | 0.00 | 0.00 | 36 | 1018.6 |
| 20260905144624 | 66 | 360 | 0.0 | 0.0 | 0.00 | 0.00 | 0.00 | 36 | 1018.7 |
| 20260905144105 | 65 | 360 | 0.0 | 0.0 | 0.00 | 0.00 | 0.00 | 38 | 1018.8 |
| 20260905143605 | 65 | 360 | 0.0 | 0.0 | 0.00 | 0.00 | 0.00 | 38 | 1018.9 |
| 20260905143106 | 65 | 360 | 0.0 | 0.0 | 0.00 | 0.00 | 0.00 | 39 | 1018.8 |
| 20260905142546 | 64 | 360 | 0.0 | 0.0 | 0.00 | 0.00 | 0.00 | 40 | 1018.8 |
| 20260905142047 | 64 | 360 | 0.0 | 0.0 | 0.00 | 0.00 | 0.00 | 38 | 1018.7 |
| 20260905141548 | 63 | 360 | 0.0 | 0.0 | 0.00 | 0.00 | 0.00 | 37 | 1018.8 |
| 20260905141029 | 63 | 360 | 0.0 | 0.0 | 0.00 | 0.00 | 0.00 | 38 | 1018.7 |
| 20260905140530 | 63 | 360 | 0.0 | 0.0 | 0.00 | 0.00 | 0.00 | 38 | 1018.7 |
| 20260905140052 | 62 | 360 | 0.0 | 0.0 | 0.00 | 0.00 | 0.00 | 38 | 1018.7 |
| 20260905135552 | 61 | 360 | 0.0 | 0.0 | 0.00 | 0.00 | 0.00 | 39 | 1018.7 |
| 20260905135033 | 60 | 360 | 0.0 | 0.0 | 0.00 | 0.00 | 0.00 | 40 | 1018.7 |
| 20260905134534 | 59 | 360 | 0.0 | 0.0 | 0.00 | 0.00 | 0.00 | 41 | 1018.7 |
| 20260905134037 | 58 | 360 | 0.0 | 0.0 | 0.00 | 0.00 | 0.00 | 42 | 1018.6 |
| 20260905133558 | 57 | 360 | 0.0 | 0.0 | 0.00 | 0.00 | 0.00 | 43 | 1018.5 |
| 20260905133120 | 55 | 360 | 0.0 | 0.0 | 0.00 | 0.00 | 0.00 | 43 | 1018.5 |
| 20260905132539 | 54 | 360 | 0.0 | 0.0 | 0.00 | 0.00 | 0.00 | 44 | 1018.4 |
| 20260905132044 | 54 | 360 | 0.0 | 0.0 | 0.00 | 0.00 | 0.00 | 45 | 1017.6 |
| 20260905131041 | 53 | 360 | 0.0 | 0.0 | 0.00 | 0.00 | 0.00 | 44 | 1018.4 |
| 20260905130526 | 53 | 360 | 0.0 | 0.0 | 0.00 | 0.00 | 0.00 | 45 | 1018.2 |
| 20260905130048 | 53 | 360 | 0.0 | 0.0 | 0.00 | 0.00 | 0.00 | 45 | 1018.2 |
| 20260905125529 | 53 | 360 | 0.0 | 4.0 | 0.00 | 0.00 | 0.00 | 45 | 1018.1 |
| 20260905125111 | 53 | 360 | 0.0 | 6.0 | 0.00 | 0.00 | 0.00 | 45 | 1018.0 |
| 20260905124551 | 53 | 360 | 5.0 | 6.0 | 0.00 | 0.00 | 0.00 | 44 | 1017.9 |
| 20260905124031 | 54 | 360 | 5.0 | 6.0 | 0.00 | 0.00 | 0.00 | 43 | 1017.7 |
| 20260905123531 | 54 | 360 | 1.0 | 2.0 | 0.00 | 0.00 | 0.00 | 43 | 1017.7 |
| 20260905123033 | 55 | 360 | 0.0 | 0.0 | 0.00 | 0.00 | 0.00 | 42 | 1017.7 |
| 20260905122534 | 55 | 360 | 0.0 | 0.0 | 0.00 | 0.00 | 0.00 | 43 | 1017.6 |
| 20260905122035 | 55 | 360 | 0.0 | 2.0 | 0.00 | 0.00 | 0.00 | 43 | 1017.6 |
| 20260905121536 | 55 | 360 | 0.0 | 3.0 | 0.00 | 0.00 | 0.00 | 43 | 1017.5 |
| 20260905121038 | 55 | 360 | 1.0 | 5.0 | 0.00 | 0.00 | 0.00 | 42 | 1017.5 |
| 20260905120558 | 56 | 360 | 2.0 | 5.0 | 0.00 | 0.00 | 0.00 | 42 | 1017.5 |
| 20260905120040 | 56 | 360 | 3.0 | 5.0 | 0.00 | 0.00 | 0.00 | 41 | 1017.3 |
| 20260905115538 | 56 | 360 | 0.0 | 3.0 | 0.00 | 0.00 | 0.00 | 41 | 1017.2 |
| 20260905115059 | 56 | 360 | 0.0 | 5.0 | 0.00 | 0.00 | 0.00 | 41 | 1017.3 |
| 20260905114620 | 56 | 360 | 3.0 | 5.0 | 0.00 | 0.00 | 0.00 | 41 | 1017.3 |
| 20260905114100 | 56 | 360 | 0.0 | 5.0 | 0.00 | 0.00 | 0.00 | 41 | 1017.2 |
| 20260905113539 | 56 | 360 | 2.0 | 5.0 | 0.00 | 0.00 | 0.00 | 41 | 1017.1 |
| 20260905112559 | 56 | 360 | 0.0 | 7.0 | 0.00 | 0.00 | 0.00 | 41 | 1016.9 |
| 20260905112038 | 56 | 360 | 3.0 | 7.0 | 0.00 | 0.00 | 0.00 | 42 | 1016.8 |
| 20260905111539 | 55 | 360 | 5.0 | 6.0 | 0.00 | 0.00 | 0.00 | 42 | 1016.7 |
| 20260905111102 | 55 | 360 | 3.0 | 4.0 | 0.00 | 0.00 | 0.00 | 41 | 1016.7 |
| 20260905110601 | 56 | 360 | 3.0 | 6.0 | 0.00 | 0.00 | 0.00 | 41 | 1016.6 |
| 20260905105624 | 56 | 360 | 5.0 | 6.0 | 0.00 | 0.00 | 0.00 | 41 | 1016.5 |
| 20260905105125 | 55 | 360 | 2.0 | 3.0 | 0.00 | 0.00 | 0.00 | 41 | 1016.6 |
| 20260905104604 | 55 | 360 | 2.0 | 6.0 | 0.00 | 0.00 | 0.00 | 41 | 1016.5 |
| 20260905104106 | 56 | 360 | 3.0 | 6.0 | 0.00 | 0.00 | 0.00 | 41 | 1016.5 |
| 20260905103605 | 55 | 360 | 6.0 | 6.0 | 0.00 | 0.00 | 0.00 | 41 | 1016.5 |
| 20260905103106 | 56 | 360 | 4.0 | 5.0 | 0.00 | 0.00 | 0.00 | 40 | 1016.4 |
| 20260905102547 | 56 | 360 | 1.0 | 3.0 | 0.00 | 0.00 | 0.00 | 40 | 1016.4 |
| 20260905102047 | 56 | 360 | 0.0 | 3.0 | 0.00 | 0.00 | 0.00 | 41 | 1016.3 |
| 20260905101527 | 56 | 360 | 2.0 | 4.0 | 0.00 | 0.00 | 0.00 | 41 | 1016.3 |
| 20260905101049 | 56 | 360 | 3.0 | 6.0 | 0.00 | 0.00 | 0.00 | 40 | 1016.3 |
| 20260905100528 | 56 | 360 | 0.0 | 6.0 | 0.00 | 0.00 | 0.00 | 41 | 1016.3 |
| 20260905100050 | 56 | 360 | 4.0 | 5.0 | 0.00 | 0.00 | 0.00 | 39 | 1016.1 |
| 20260905095531 | 57 | 360 | 3.0 | 5.0 | 0.00 | 0.00 | 0.00 | 39 | 1016.0 |
| 20260905095036 | 58 | 360 | 0.0 | 0.0 | 0.00 | 0.00 | 0.00 | 38 | 1016.1 |
| 20260905094559 | 59 | 360 | 0.0 | 0.0 | 0.00 | 0.00 | 0.00 | 38 | 1016.0 |
| 20260905094100 | 59 | 360 | 0.0 | 1.0 | 0.00 | 0.00 | 0.00 | 38 | 1015.9 |
| 20260905093539 | 59 | 360 | 0.0 | 7.0 | 0.00 | 0.00 | 0.00 | 38 | 1015.8 |
| 20260905092539 | 58 | 360 | 6.0 | 7.0 | 0.00 | 0.00 | 0.00 | 38 | 1015.8 |
| 20260905092041 | 58 | 360 | 3.0 | 5.0 | 0.00 | 0.00 | 0.00 | 38 | 1015.6 |
| 20260905091603 | 59 | 360 | 2.0 | 5.0 | 0.00 | 0.00 | 0.00 | 37 | 1015.7 |
| 20260905091105 | 59 | 360 | 1.0 | 3.0 | 0.00 | 0.00 | 0.00 | 37 | 1015.8 |
| 20260905090543 | 59 | 360 | 0.0 | 7.0 | 0.00 | 0.00 | 0.00 | 38 | 1015.7 |
| 20260905090044 | 59 | 360 | 2.0 | 7.0 | 0.00 | 0.00 | 0.00 | 37 | 1015.6 |
| 20260905085546 | 60 | 360 | 4.0 | 7.0 | 0.00 | 0.00 | 0.00 | 36 | 1015.5 |
| 20260905085106 | 61 | 360 | 0.0 | 4.0 | 0.00 | 0.00 | 0.00 | 35 | 1015.5 |
| 20260905084627 | 62 | 360 | 1.0 | 4.0 | 0.00 | 0.00 | 0.00 | 34 | 1015.4 |
| 20260905084028 | 63 | 360 | 0.0 | 0.0 | 0.00 | 0.00 | 0.00 | 35 | 1015.4 |
| 20260905083527 | 63 | 360 | 0.0 | 4.0 | 0.00 | 0.00 | 0.00 | 34 | 1015.4 |
| 20260905083028 | 64 | 360 | 1.0 | 4.0 | 0.00 | 0.00 | 0.00 | 34 | 1015.4 |
| 20260905082610 | 65 | 360 | 0.0 | 4.0 | 0.00 | 0.00 | 0.00 | 33 | 1015.3 |
| 20260905082029 | 66 | 360 | 2.0 | 4.0 | 0.00 | 0.00 | 0.00 | 33 | 1015.2 |
| 20260905081530 | 68 | 360 | 0.0 | 4.0 | 0.00 | 0.00 | 0.00 | 31 | 1015.3 |
| 20260905081112 | 68 | 360 | 0.0 | 5.0 | 0.00 | 0.00 | 0.00 | 30 | 1015.1 |
| 20260905080529 | 67 | 360 | 0.0 | 5.0 | 0.00 | 0.00 | 0.00 | 30 | 1015.0 |
| 20260905080051 | 67 | 360 | 0.0 | 1.0 | 0.00 | 0.00 | 0.00 | 31 | 1015.0 |
| 20260905075552 | 66 | 360 | 0.0 | 3.0 | 0.00 | 0.00 | 0.00 | 31 | 1014.9 |
| 20260905075114 | 66 | 360 | 0.0 | 3.0 | 0.00 | 0.00 | 0.00 | 31 | 1014.8 |
| 20260905074534 | 66 | 360 | 0.0 | 7.0 | 0.00 | 0.00 | 0.00 | 32 | 1014.8 |
| 20260905074037 | 65 | 360 | 0.0 | 12.0 | 0.00 | 0.00 | 0.00 | 32 | 1014.7 |
| 20260905073037 | 63 | 360 | 3.0 | 9.0 | 0.00 | 0.00 | 0.00 | 34 | 1014.6 |
| 20260905072559 | 63 | 360 | 0.0 | 0.0 | 0.00 | 0.00 | 0.00 | 35 | 1014.5 |
| 20260905072101 | 63 | 360 | 0.0 | 0.0 | 0.00 | 0.00 | 0.00 | 35 | 1014.3 |
| 20260905071602 | 62 | 360 | 0.0 | 0.0 | 0.00 | 0.00 | 0.00 | 36 | 1014.1 |
| 20260905071104 | 62 | 360 | 0.0 | 1.0 | 0.00 | 0.00 | 0.00 | 34 | 1014.0 |
| 20260905065624 | 63 | 360 | 0.0 | 0.0 | 0.00 | 0.00 | 0.00 | 33 | 1014.0 |
| 20260905065124 | 63 | 360 | 0.0 | 0.0 | 0.00 | 0.00 | 0.00 | 34 | 1014.2 |
| 20260905064542 | 64 | 360 | 0.0 | 0.0 | 0.00 | 0.00 | 0.00 | 34 | 1014.0 |
| 20260905064044 | 64 | 360 | 0.0 | 0.0 | 0.00 | 0.00 | 0.00 | 33 | 1014.0 |
| 20260905063605 | 64 | 360 | 0.0 | 2.0 | 0.00 | 0.00 | 0.00 | 33 | 1013.9 |
| 20260905063024 | 64 | 360 | 0.0 | 2.0 | 0.00 | 0.00 | 0.00 | 33 | 1013.9 |
| 20260905062526 | 64 | 360 | 0.0 | 2.0 | 0.00 | 0.00 | 0.00 | 32 | 1013.8 |
| 20260905062108 | 65 | 360 | 1.0 | 2.0 | 0.00 | 0.00 | 0.00 | 32 | 1013.7 |
| 20260905061548 | 65 | 360 | 0.0 | 0.0 | 0.00 | 0.00 | 0.00 | 32 | 1013.7 |
| 20260905061110 | 65 | 360 | 0.0 | 0.0 | 0.00 | 0.00 | 0.00 | 33 | 1013.7 |
| 20260905060047 | 65 | 360 | 0.0 | 1.0 | 0.00 | 0.00 | 0.00 | 32 | 1013.6 |
| 20260905055547 | 65 | 360 | 0.0 | 3.0 | 0.00 | 0.00 | 0.00 | 32 | 1013.6 |
| 20260905055048 | 65 | 360 | 0.0 | 3.0 | 0.00 | 0.00 | 0.00 | 31 | 1013.5 |
| 20260905054608 | 65 | 360 | 1.0 | 9.0 | 0.00 | 0.00 | 0.00 | 31 | 1013.4 |
| 20260905054049 | 65 | 360 | 5.0 | 9.0 | 0.00 | 0.00 | 0.00 | 30 | 1013.2 |
| 20260905053549 | 65 | 360 | 5.0 | 7.0 | 0.00 | 0.00 | 0.00 | 31 | 1013.2 |
| 20260905053030 | 65 | 360 | 6.0 | 6.0 | 0.00 | 0.00 | 0.00 | 31 | 1013.2 |
| 20260905052531 | 65 | 360 | 0.0 | 4.0 | 0.00 | 0.00 | 0.00 | 30 | 1013.2 |
| 20260905052033 | 66 | 360 | 1.0 | 3.0 | 0.00 | 0.00 | 0.00 | 30 | 1013.2 |
| 20260905051554 | 66 | 360 | 0.0 | 2.0 | 0.00 | 0.00 | 0.00 | 30 | 1013.3 |
| 20260905051034 | 66 | 360 | 0.0 | 2.0 | 0.00 | 0.00 | 0.00 | 30 | 1013.2 |
| 20260905050555 | 65 | 360 | 0.0 | 5.0 | 0.00 | 0.00 | 0.00 | 30 | 1013.2 |
| 20260905050055 | 65 | 360 | 0.0 | 6.0 | 0.00 | 0.00 | 0.00 | 29 | 1013.2 |
| 20260905045616 | 66 | 360 | 5.0 | 6.0 | 0.00 | 0.00 | 0.00 | 30 | 1013.2 |
| 20260905045035 | 66 | 360 | 5.0 | 7.0 | 0.00 | 0.00 | 0.00 | 29 | 1013.2 |
| 20260905044557 | 66 | 360 | 0.0 | 7.0 | 0.00 | 0.00 | 0.00 | 29 | 1013.1 |
| 20260905044059 | 66 | 360 | 3.0 | 5.0 | 0.00 | 0.00 | 0.00 | 29 | 1013.2 |
| 20260905043119 | 66 | 360 | 1.0 | 3.0 | 0.00 | 0.00 | 0.00 | 29 | 1013.3 |
| 20260905042559 | 65 | 360 | 0.0 | 3.0 | 0.00 | 0.00 | 0.00 | 30 | 1013.1 |
| 20260905042041 | 65 | 360 | 0.0 | 3.0 | 0.00 | 0.00 | 0.00 | 29 | 1013.0 |
| 20260905041619 | 65 | 360 | 1.0 | 5.0 | 0.00 | 0.00 | 0.00 | 29 | 1012.9 |
| 20260905041039 | 66 | 360 | 4.0 | 5.0 | 0.00 | 0.00 | 0.00 | 29 | 1012.8 |
| 20260905040538 | 66 | 360 | 2.0 | 4.0 | 0.00 | 0.00 | 0.00 | 29 | 1012.8 |
| 20260905035603 | 66 | 360 | 0.0 | 3.0 | 0.00 | 0.00 | 0.00 | 29 | 1012.8 |
| 20260905034603 | 66 | 360 | 1.0 | 7.0 | 0.00 | 0.00 | 0.00 | 28 | 1012.7 |
| 20260905034044 | 67 | 360 | 5.0 | 7.0 | 0.00 | 0.00 | 0.00 | 28 | 1012.7 |
| 20260905033605 | 67 | 360 | 0.0 | 3.0 | 0.00 | 0.00 | 0.00 | 28 | 1012.7 |
| 20260905033045 | 68 | 360 | 1.0 | 3.0 | 0.00 | 0.00 | 0.00 | 27 | 1012.6 |
| 20260905032525 | 68 | 360 | 2.0 | 3.0 | 0.00 | 0.00 | 0.00 | 28 | 1012.6 |
| 20260905032047 | 68 | 360 | 1.0 | 4.0 | 0.00 | 0.00 | 0.00 | 27 | 1012.5 |
| 20260905031548 | 68 | 360 | 2.0 | 5.0 | 0.00 | 0.00 | 0.00 | 27 | 1012.5 |
| 20260905031111 | 69 | 360 | 1.0 | 5.0 | 0.00 | 0.00 | 0.00 | 26 | 1012.4 |
| 20260905030530 | 70 | 360 | 4.0 | 5.0 | 0.00 | 0.00 | 0.00 | 26 | 1012.4 |
| 20260905030052 | 71 | 360 | 2.0 | 5.0 | 0.00 | 0.00 | 0.00 | 25 | 1012.3 |